Perryton, TX

12:14 PM CST on February 24, 2018 (GMT -0600)
Perryton Ochiltree County

Weather History for KPYX - August, 2013

Change the Weather History Date:

Friday, August 2, 2013

  Actual Average Record
Temperature  
Mean Temperature 90 °F -  
Max Temperature 105 °F 92 °F 105 °F (1980)
Min Temperature 74 °F 63 °F 53 °F (1974)
Cooling Degree Days 24    
Growing Degree Days 40 (Base 50)    
Moisture  
Dew Point 57 °F    
Average Humidity 38    
Maximum Humidity 66    
Minimum Humidity 16    
Precipitation  
Precipitation 0.00 in - - ()
Sea Level Pressure  
Sea Level Pressure 29.91 in    
Wind  
Wind Speed 13 mph (SW)    
Max Wind Speed 28 mph    
Max Gust Speed 39 mph    
Visibility 10 miles    
Events      
Averages and records for this station are not official NWS values.
T = Trace of Precipitation, MM = Missing Value Source: NWS Daily Summary

Daily Weather History Graph

Daily Weather History Graph

Search for Another Location

Airport or City:

Trip Planner

Search our weather history database for the weather conditions in past years. The results will help you decide how hot, cold, wet, or windy it might be!

Date:

Astronomy

Aug. 02, 2013 Rise Set
Actual Time 6:50 AM CDT 8:47 PM CDT
Civil Twilight 6:22 AM CDT 9:15 PM CDT
Nautical Twilight 5:47 AM CDT 9:50 PM CDT
Astronomical Twilight 5:10 AM CDT 10:26 PM CDT
Moon 3:14 AM CDT (8/2) 5:45 PM CDT (8/2)
Length of Visible Light 14h 53m
Length of Day
13h 56m
Waning Crescent, 15% of the Moon is Illuminated
Aug 2
Waning Crescent
Aug 6
New
Aug 14
First Quarter
Aug 20
Full
Aug 28
Last Quarter

Hourly Weather History & Observations

Time (CDT) Temp. Heat Index Dew Point Humidity Pressure Visibility Wind Dir Wind Speed Gust Speed Precip Events Conditions
12:15 AM 81.3 °F 82.1 °F 60.8 °F 50% 30.05 in 10.0 mi West 9.2 mph - N/A   Mostly Cloudy
12:35 AM 80.2 °F 81.1 °F 60.8 °F 51% 30.04 in 10.0 mi West 6.9 mph - N/A   Scattered Clouds
12:55 AM 79.7 °F - 61.0 °F 53% 30.03 in 10.0 mi WSW 3.5 mph - N/A   Scattered Clouds
1:15 AM 78.8 °F - 61.0 °F 54% 30.02 in 10.0 mi WSW 3.5 mph - N/A   Scattered Clouds
1:35 AM 79.0 °F - 60.8 °F 54% 30.01 in 10.0 mi SW 5.8 mph - N/A   Clear
1:55 AM 78.8 °F - 60.8 °F 54% 29.98 in 10.0 mi South 6.9 mph - N/A   Clear
2:15 AM 77.7 °F - 61.0 °F 56% 29.98 in 10.0 mi SSE 5.8 mph - N/A   Clear
2:35 AM 76.6 °F - 61.2 °F 59% 29.98 in 10.0 mi ESE 3.5 mph - N/A   Clear
2:55 AM 74.7 °F - 62.6 °F 66% 29.97 in 10.0 mi East 6.9 mph - N/A   Clear
3:15 AM 74.5 °F - 62.2 °F 66% 29.97 in 10.0 mi ESE 5.8 mph - N/A   Clear
3:35 AM 76.1 °F - 61.9 °F 61% 29.96 in 10.0 mi SE 6.9 mph - N/A   Clear
3:55 AM 76.1 °F - 61.7 °F 61% 29.96 in 10.0 mi South 9.2 mph - N/A   Clear
4:15 AM 77.2 °F - 62.4 °F 60% 29.96 in 10.0 mi South 10.4 mph - N/A   Clear
4:35 AM 77.9 °F - 62.6 °F 59% 29.96 in 10.0 mi South 12.7 mph - N/A   Clear
4:55 AM 77.4 °F - 62.6 °F 60% 29.95 in 10.0 mi South 12.7 mph - N/A   Clear
5:15 AM 77.2 °F - 62.6 °F 61% 29.94 in 10.0 mi South 12.7 mph - N/A   Clear
5:35 AM 77.0 °F - 63.0 °F 62% 29.94 in 10.0 mi South 12.7 mph - N/A   Clear
5:55 AM 77.0 °F - 63.1 °F 62% 29.94 in 10.0 mi South 12.7 mph - N/A   Clear
6:15 AM 76.3 °F - 63.0 °F 63% 29.93 in 10.0 mi South 12.7 mph - N/A   Clear
6:35 AM 75.6 °F - 62.8 °F 64% 29.92 in 10.0 mi South 11.5 mph - N/A   Clear
6:55 AM 75.2 °F - 62.6 °F 65% 29.93 in 10.0 mi SSW 10.4 mph - N/A   Clear
7:15 AM 75.2 °F - 62.8 °F 65% 29.93 in 10.0 mi SSW 9.2 mph - N/A   Clear
7:35 AM 75.4 °F - 63.1 °F 66% 29.93 in 10.0 mi SSW 10.4 mph - N/A   Clear
7:55 AM 76.6 °F - 63.5 °F 64% 29.93 in 10.0 mi SSW 10.4 mph - N/A   Clear
8:15 AM 77.9 °F - 63.1 °F 60% 29.93 in 10.0 mi SSW 15.0 mph - N/A   Clear
8:35 AM 80.8 °F 82.0 °F 62.6 °F 54% 29.93 in 10.0 mi SSW 19.6 mph - N/A   Clear
8:55 AM 79.9 °F - 62.2 °F 55% 29.93 in 10.0 mi SSW 15.0 mph - N/A   Clear
9:15 AM 81.5 °F 82.7 °F 62.6 °F 53% 29.93 in 10.0 mi SSW 19.6 mph - N/A   Clear
9:35 AM 83.5 °F 84.3 °F 62.2 °F 49% 29.93 in 10.0 mi SSW 20.7 mph - N/A   Clear
9:55 AM 85.8 °F 86.3 °F 62.1 °F 45% 29.93 in 10.0 mi SW 18.4 mph - N/A   Clear
10:15 AM 86.7 °F 86.8 °F 61.3 °F 42% 29.93 in 10.0 mi SW 19.6 mph - N/A   Clear
10:35 AM 89.6 °F 89.5 °F 61.0 °F 38% 29.93 in 10.0 mi SW 20.7 mph - N/A   Clear
10:55 AM 92.3 °F 91.0 °F 57.9 °F 31% 29.93 in 10.0 mi SW 20.7 mph 28.8 mph N/A   Clear
11:15 AM 93.9 °F 92.9 °F 57.7 °F 30% 29.93 in 10.0 mi SW 21.9 mph 31.1 mph N/A   Clear
11:35 AM 95.0 °F 93.7 °F 56.8 °F 28% 29.92 in 10.0 mi SW 19.6 mph 31.1 mph N/A   Clear
11:55 AM 96.3 °F 94.7 °F 55.9 °F 26% 29.92 in 10.0 mi SW 25.3 mph 34.5 mph N/A   Clear
12:15 PM 97.7 °F 95.9 °F 54.9 °F 24% 29.92 in 10.0 mi SW 21.9 mph 34.5 mph N/A   Clear
12:35 PM 98.6 °F 96.4 °F 53.8 °F 22% 29.91 in 10.0 mi SW 27.6 mph 34.5 mph N/A   Clear
12:55 PM 100.0 °F 97.9 °F 53.1 °F 21% 29.91 in 10.0 mi SW 24.2 mph 33.4 mph N/A   Clear
1:15 PM 101.5 °F - 52.9 °F 20% 29.90 in 10.0 mi WSW 25.3 mph 33.4 mph N/A   Clear
1:35 PM 102.4 °F - 52.3 °F 19% 29.90 in 10.0 mi WSW 23.0 mph 34.5 mph N/A   Clear
1:55 PM 102.0 °F - 52.5 °F 19% 29.89 in 10.0 mi WSW 24.2 mph 35.7 mph N/A   Clear
2:15 PM 102.6 °F - 51.8 °F 18% 29.88 in 10.0 mi SW 27.6 mph 34.5 mph N/A   Clear
2:35 PM 103.3 °F - 51.8 °F 18% 29.88 in 10.0 mi SW 19.6 mph 28.8 mph N/A   Scattered Clouds
2:55 PM 103.6 °F - 51.3 °F 17% 29.88 in 10.0 mi SW 26.5 mph 34.5 mph N/A   Scattered Clouds
3:15 PM 104.2 °F - 51.1 °F 17% 29.87 in 10.0 mi WSW 27.6 mph 33.4 mph N/A   Clear
3:35 PM 104.0 °F - 50.5 °F 17% 29.87 in 10.0 mi West 25.3 mph 33.4 mph N/A   Clear
3:55 PM 104.2 °F - 48.9 °F 16% 29.86 in 10.0 mi WSW 24.2 mph 39.1 mph N/A   Clear
4:15 PM 105.1 °F - 49.6 °F 16% 29.85 in 10.0 mi WSW 24.2 mph 34.5 mph N/A   Clear
4:35 PM 104.0 °F - 50.0 °F 16% 29.85 in 10.0 mi SSW 23.0 mph 31.1 mph N/A   Scattered Clouds
4:55 PM 102.6 °F - 52.0 °F 18% 29.85 in 10.0 mi WSW 20.7 mph 33.4 mph N/A   Scattered Clouds
5:15 PM 104.2 °F - 51.8 °F 17% 29.84 in 10.0 mi WSW 20.7 mph 31.1 mph N/A   Scattered Clouds
5:35 PM 103.6 °F - 51.4 °F 17% 29.84 in 10.0 mi SW 21.9 mph 27.6 mph N/A   Scattered Clouds
5:55 PM 104.0 °F - 51.8 °F 17% 29.83 in 10.0 mi SW 18.4 mph 28.8 mph N/A   Scattered Clouds
6:15 PM 104.0 °F - 50.7 °F 17% 29.84 in 10.0 mi SW 19.6 mph 29.9 mph N/A   Scattered Clouds
6:35 PM 103.3 °F - 51.6 °F 18% 29.83 in 10.0 mi WSW 17.3 mph - N/A   Scattered Clouds
6:55 PM 102.9 °F - 51.3 °F 18% 29.83 in 10.0 mi WSW 20.7 mph 29.9 mph N/A   Scattered Clouds
7:15 PM 102.2 °F - 50.4 °F 18% 29.83 in 10.0 mi WSW 15.0 mph 24.2 mph N/A   Clear
7:35 PM 101.5 °F - 49.6 °F 17% 29.84 in 10.0 mi WSW 16.1 mph - N/A   Clear
7:55 PM 99.9 °F - 50.0 °F 19% 29.84 in 10.0 mi SSW 10.4 mph - N/A   Scattered Clouds
8:15 PM 97.0 °F - 51.8 °F 22% 29.85 in 10.0 mi SSW 19.6 mph 27.6 mph N/A   Mostly Cloudy
8:35 PM 96.1 °F - 51.1 °F 22% 29.85 in 10.0 mi SSW 17.3 mph 25.3 mph N/A   Mostly Cloudy
8:55 PM 93.6 °F - 51.1 °F 24% 29.85 in 10.0 mi SSW 18.4 mph - N/A   Scattered Clouds
9:15 PM 91.6 °F - 52.2 °F 26% 29.87 in 10.0 mi SSW 13.8 mph - N/A   Scattered Clouds
9:35 PM 91.2 °F - 51.3 °F 25% 29.87 in 10.0 mi SSW 12.7 mph - N/A   Scattered Clouds
9:55 PM 90.0 °F - 51.4 °F 27% 29.88 in 10.0 mi SSW 13.8 mph - N/A   Scattered Clouds
10:15 PM 89.1 °F - 51.4 °F 27% 29.88 in 10.0 mi SSW 12.7 mph - N/A   Scattered Clouds
10:35 PM 87.8 °F - 51.8 °F 29% 29.89 in 10.0 mi SSW 13.8 mph - N/A   Scattered Clouds
10:55 PM 87.3 °F - 51.8 °F 29% 29.89 in 10.0 mi SSW 12.7 mph - N/A   Clear
11:15 PM 86.9 °F - 51.3 °F 29% 29.90 in 10.0 mi SW 11.5 mph - N/A   Mostly Cloudy
11:35 PM 86.0 °F - 51.3 °F 30% 29.90 in 10.0 mi SW 10.4 mph - N/A   Mostly Cloudy
11:55 PM 84.2 °F - 51.8 °F 33% 29.91 in 10.0 mi West 6.9 mph - N/A   Scattered Clouds